Location: Casteau
(50.5142°N, 4.0161°E)
Time: 02:57:28
(UTC+00:00)

Transit 2A - Pass Details

Date: 28 July 2021
Orbit: 594 x 964 km, 66.7° (Epoch: 27 September)

Event Time Altitude Azimuth Distance (km) Brightness Sun altitude
Rises 10:59:04 0° 303° (WNW) 2,983 8.8 56.7°
Reaches altitude 10° 11:02:45 10° 333° (NNW) 2,148 8.1 57.0°
Maximum altitude 11:04:48 12° 358° (N) 2,030 8.0 57.1°
Drops below altitude 10° 11:06:56 10° 23° (NNE) 2,246 8.3 57.2°
Sets 11:10:59 0° 53° (NE) 3,272 9.2 57.4°
